This is the latest recevied weather packets stored in our database for station/object W6MAF. If no packets are shown the sender has not sent any weather packets the latest 10 day(s).
| Time | Temp. | Humidity | Pressure | Rain* | Wind** | Luminosity | Snow |
|---|---|---|---|---|---|---|---|
| 1777856367 | 14.44° C | 46% | - | 0 mm | 4.92 m/s, 188° | - | - |
| 1777856318 | 14.44° C | 46% | - | 0 mm | 4.92 m/s, 188° | - | - |
| 1777856068 | 14.44° C | 47% | - | 0 mm | 3.58 m/s, 183° | - | - |
| 1777856020 | 14.44° C | 47% | - | 0 mm | 3.58 m/s, 183° | - | - |
| 1777855775 | 14.44° C | 47% | - | 0 mm | 3.58 m/s, 187° | - | - |
| 1777855722 | 14.44° C | 47% | - | 0 mm | 3.58 m/s, 187° | - | - |
| 1777855422 | 14.44° C | 46% | - | 0 mm | 5.81 m/s, 191° | - | - |
| 1777855165 | 15° C | 46% | - | 0 mm | 4.47 m/s, 208° | - | - |
| 1777855124 | 15° C | 46% | - | 0 mm | 4.47 m/s, 208° | - | - |
| 1777854829 | 14.44° C | 46% | - | 0 mm | 4.02 m/s, 184° | - | - |
| 1777854578 | 15° C | 45% | - | 0 mm | 7.15 m/s, 187° | - | - |
| 1777854528 | 15° C | 45% | - | 0 mm | 7.15 m/s, 187° | - | - |
| 1777854231 | 15° C | 44% | - | 0 mm | 6.26 m/s, 177° | - | - |
| 1777853933 | 15° C | 44% | - | 0 mm | 3.58 m/s, 201° | - | - |
| 1777853334 | 15° C | 44% | - | 0 mm | 7.15 m/s, 165° | - | - |
| 1777853086 | 15° C | 45% | - | 0 mm | 5.81 m/s, 179° | - | - |
| 1777853037 | 15° C | 45% | - | 0 mm | 5.81 m/s, 179° | - | - |
| 1777852442 | 15° C | 45% | - | 0 mm | 8.05 m/s, 186° | - | - |
| 1777852144 | 15° C | 46% | - | 0 mm | 6.71 m/s, 194° | - | - |
| 1777851843 | 15° C | 45% | - | 0 mm | 7.6 m/s, 226° | - | - |
| 1777851546 | 15° C | 45% | - | 0 mm | 8.94 m/s, 215° | - | - |
| 1777851250 | 15° C | 43% | - | 0 mm | 9.83 m/s, 203° | - | - |
| 1777851247 | 15° C | 45% | - | 0 mm | 10.28 m/s, 205° | - | - |
| 1777850950 | 15° C | 43% | - | 0 mm | 9.83 m/s, 203° | - | - |
| 1777850652 | 15° C | 42% | - | 0 mm | 10.28 m/s, 169° | - | - |
* Rain latest hour (hover to see other rain measurements)
** Current wind speed in m/s (hover to see current wind gust speed)